Photometre #854[NE_1.6_Dp] OHP_OBSERVATOIRE AOT

File : 20200923_854.hum

23/09/2020,06:16:08,TEMP=12.9,BA=4.96,STAT.A,ExtBa=11.00
23/09/2020,06:19:42,TEMP=13.3,BA=4.96,STAT.A,ExtBa=11.00
23/09/2020,06:23:53,TEMP=13.6,BA=4.88,STAT.A,ExtBa=10.90
23/09/2020,06:28:52,TEMP=13.8,BA=4.88,STAT.A,ExtBa=10.90
23/09/2020,06:34:52,TEMP=14.3,BA=4.88,STAT.A,ExtBa=10.90
23/09/2020,06:42:16,TEMP=14.6,BA=4.96,STAT.A,ExtBa=11.00
23/09/2020,06:51:38,TEMP=14.8,BA=4.96,STAT.B,ExtBa=11.00
23/09/2020,07:00:37,TEMP=15.4,BA=4.88,STAT.A,ExtBa=10.90
23/09/2020,07:02:38,TEMP=15.5,BA=4.88,STAT.A,ExtBa=10.90
23/09/2020,07:06:49,TEMP=15.3,BA=4.88,STAT.A,ExtBa=10.90
23/09/2020,07:13:17,TEMP=15.7,BA=4.92,STAT.A,ExtBa=10.90
23/09/2020,07:20:43,TEMP=16.5,BA=4.92,STAT.C,ExtBa=10.90
23/09/2020,07:46:15,TEMP=18.2,BA=4.88,STAT.A,ExtBa=10.80
23/09/2020,07:48:22,TEMP=18.3,BA=4.88,STAT.A,ExtBa=10.80
23/09/2020,07:51:52,TEMP=18.0,BA=4.84,STAT.A,ExtBa=10.90
23/09/2020,08:07:03,TEMP=18.5,BA=4.92,STAT.A,ExtBa=10.90
23/09/2020,08:26:25,TEMP=20.3,BA=4.92,STAT.B,ExtBa=10.90
23/09/2020,08:35:34,TEMP=21.6,BA=4.84,STAT.F,ExtBa=10.80
23/09/2020,08:45:49,TEMP=21.9,BA=4.84,STAT.D,ExtBa=10.80
23/09/2020,08:59:55,TEMP=21.2,BA=4.92,STAT.D,ExtBa=10.80
23/09/2020,09:14:56,TEMP=19.8,BA=4.92,STAT.D,ExtBa=10.80
23/09/2020,09:29:58,TEMP=21.0,BA=4.92,STAT.F,ExtBa=10.80
23/09/2020,09:44:56,TEMP=19.6,BA=4.92,STAT.D,ExtBa=10.80
23/09/2020,09:59:56,TEMP=21.5,BA=4.92,STAT.D,ExtBa=10.80
23/09/2020,10:14:56,TEMP=23.0,BA=4.92,STAT.D,ExtBa=10.80
23/09/2020,10:29:58,TEMP=24.1,BA=4.92,STAT.F,ExtBa=10.80
23/09/2020,10:53:55,TEMP=24.2,BA=4.88,STAT.D,ExtBa=10.70
23/09/2020,10:59:55,TEMP=23.8,BA=4.88,STAT.D,ExtBa=10.80
23/09/2020,11:14:55,TEMP=24.4,BA=4.92,STAT.D,ExtBa=10.80
23/09/2020,11:29:58,TEMP=23.5,BA=4.92,STAT.F,ExtBa=10.80
23/09/2020,11:44:56,TEMP=21.7,BA=4.92,STAT.D,ExtBa=10.80
23/09/2020,11:59:56,TEMP=22.8,BA=4.92,STAT.D,ExtBa=10.80
23/09/2020,12:14:56,TEMP=22.2,BA=4.96,STAT.D,ExtBa=10.80
23/09/2020,12:29:58,TEMP=23.3,BA=4.96,STAT.F,ExtBa=10.80
23/09/2020,12:54:05,TEMP=24.6,BA=4.88,STAT.D,ExtBa=10.60
23/09/2020,12:59:55,TEMP=24.2,BA=4.88,STAT.D,ExtBa=10.70
23/09/2020,13:14:56,TEMP=24.8,BA=4.92,STAT.D,ExtBa=10.70
23/09/2020,13:29:57,TEMP=25.0,BA=4.92,STAT.F,ExtBa=10.70
23/09/2020,13:53:42,TEMP=24.9,BA=4.88,STAT.D,ExtBa=10.50
23/09/2020,13:59:56,TEMP=24.4,BA=4.88,STAT.D,ExtBa=10.60
23/09/2020,14:14:55,TEMP=24.5,BA=4.92,STAT.D,ExtBa=10.60
23/09/2020,14:29:57,TEMP=24.3,BA=4.92,STAT.F,ExtBa=10.60
23/09/2020,14:54:21,TEMP=24.1,BA=4.88,STAT.B,ExtBa=10.30
23/09/2020,15:03:09,TEMP=23.9,BA=4.88,STAT.A,ExtBa=10.20
23/09/2020,15:08:02,TEMP=23.5,BA=4.88,STAT.A,ExtBa=10.30
23/09/2020,15:20:20,TEMP=23.2,BA=4.92,STAT.A,ExtBa=10.30
23/09/2020,15:30:32,TEMP=23.1,BA=4.92,STAT.A,ExtBa=10.30
23/09/2020,15:39:11,TEMP=22.8,BA=4.92,STAT.C,ExtBa=10.30
23/09/2020,15:49:19,TEMP=22.8,BA=4.88,STAT.A,ExtBa=10.00
23/09/2020,15:53:03,TEMP=22.4,BA=4.88,STAT.A,ExtBa=10.00
23/09/2020,15:58:43,TEMP=22.2,BA=4.88,STAT.A,ExtBa=10.10
23/09/2020,16:03:45,TEMP=22.2,BA=4.88,STAT.A,ExtBa=10.00
23/09/2020,16:08:14,TEMP=22.2,BA=4.88,STAT.B,ExtBa=10.00
23/09/2020,16:17:36,TEMP=22.1,BA=4.88,STAT.A,ExtBa=9.70
23/09/2020,16:25:00,TEMP=21.6,BA=4.92,STAT.A,ExtBa=9.80
23/09/2020,16:31:00,TEMP=21.5,BA=4.92,STAT.A,ExtBa=9.70
23/09/2020,16:46:25,TEMP=20.9,BA=4.88,STAT.A,ExtBa=9.80
23/09/2020,16:48:24,TEMP=21.2,BA=4.88,STAT.A,ExtBa=9.70
23/09/2020,16:50:31,TEMP=21.1,BA=4.88,STAT.A,ExtBa=9.70